TimeEST,TemperatureF,Dew PointF,Humidity,Sea Level PressureIn,VisibilityMPH,Wind Direction,Wind SpeedMPH,Gust SpeedMPH,PrecipitationIn,Events,Conditions,WindDirDegrees,DateUTC
12:53 AM,46.0,25.0,44,29.93,10.0,SSW,4.6,-,N/A,,Clear,200,2006-01-13 05:53:00
1:53 AM,46.9,23.0,39,29.93,10.0,SSW,5.8,-,N/A,,Clear,200,2006-01-13 06:53:00
2:53 AM,48.9,21.9,35,29.93,10.0,SSW,4.6,-,N/A,,Clear,210,2006-01-13 07:53:00
3:53 AM,50.0,23.0,35,29.91,10.0,South,5.8,-,N/A,,Clear,190,2006-01-13 08:53:00
4:53 AM,51.1,25.0,36,29.90,10.0,South,4.6,-,N/A,,Mostly Cloudy,180,2006-01-13 09:53:00
5:53 AM,52.0,27.0,38,29.88,10.0,South,6.9,-,N/A,,Overcast,190,2006-01-13 10:53:00
6:53 AM,53.1,28.0,38,29.88,10.0,South,4.6,-,N/A,,Mostly Cloudy,190,2006-01-13 11:53:00
7:53 AM,51.1,27.0,39,29.85,10.0,SSE,4.6,-,N/A,,Mostly Cloudy,160,2006-01-13 12:53:00
8:53 AM,53.1,28.9,40,29.83,10.0,SSE,5.8,-,N/A,,Mostly Cloudy,150,2006-01-13 13:53:00
9:53 AM,61.0,28.0,29,29.82,10.0,Variable,6.9,-,N/A,,Partly Cloudy,0,2006-01-13 14:53:00
10:53 AM,64.9,25.0,22,29.78,10.0,SSE,8.1,-,N/A,,Clear,160,2006-01-13 15:53:00
11:53 AM,66.9,28.0,23,29.72,10.0,SSE,12.7,-,N/A,,Clear,160,2006-01-13 16:53:00
12:53 PM,69.1,26.1,20,29.63,10.0,South,16.1,20.7,N/A,,Clear,170,2006-01-13 17:53:00
1:53 PM,69.1,24.1,18,29.59,10.0,SSW,11.5,20.7,N/A,,Clear,200,2006-01-13 18:53:00
2:53 PM,68.0,33.1,27,29.56,10.0,South,13.8,20.7,N/A,,Clear,180,2006-01-13 19:53:00
3:53 PM,66.9,32.0,27,29.55,10.0,South,9.2,-,N/A,,Clear,180,2006-01-13 20:53:00
4:53 PM,64.9,33.1,31,29.54,10.0,SW,8.1,-,N/A,,Overcast,220,2006-01-13 21:53:00
5:53 PM,61.0,39.0,44,29.53,10.0,South,10.4,-,N/A,,Mostly Cloudy,170,2006-01-13 22:53:00
6:53 PM,59.0,39.9,49,29.49,10.0,SSE,9.2,-,N/A,,Mostly Cloudy,150,2006-01-13 23:53:00
7:53 PM,60.1,43.0,53,29.43,10.0,ESE,6.9,-,0.00,Rain,Light Rain,120,2006-01-14 00:53:00
8:53 PM,57.0,46.0,67,29.38,10.0,Variable,3.5,-,0.02,Rain,Light Rain,0,2006-01-14 01:53:00
9:53 PM,51.1,48.9,92,29.35,3.0,NNW,5.8,-,0.10,Rain,Rain,340,2006-01-14 02:53:00
10:15 PM,51.8,48.2,88,29.34,3.0,North,4.6,-,0.05,Rain,Light Rain,360,2006-01-14 03:15:00
10:31 PM,51.8,48.2,88,29.34,2.5,North,5.8,-,0.11,Rain,Heavy Rain,350,2006-01-14 03:31:00
10:39 PM,50.0,48.2,94,29.34,2.5,NNE,4.6,-,0.15,Rain,Heavy Rain,20,2006-01-14 03:39:00
10:53 PM,50.0,48.9,96,29.36,1.8,Variable,6.9,-,0.24,Rain,Heavy Rain,0,2006-01-14 03:53:00
11:00 PM,50.0,48.2,94,29.34,2.0,SSE,5.8,-,0.03,Rain,Rain,160,2006-01-14 04:00:00
11:09 PM,50.0,48.2,94,29.36,4.0,West,8.1,-,0.05,Rain,Rain,270,2006-01-14 04:09:00
11:19 PM,50.0,48.2,94,29.37,2.0,WNW,10.4,17.3,0.11,Rain,Heavy Rain,290,2006-01-14 04:19:00
11:23 PM,48.2,46.4,93,29.38,3.0,WNW,13.8,19.6,0.12,Rain,Light Rain,290,2006-01-14 04:23:00
11:37 PM,48.2,44.6,87,29.41,7.0,WNW,12.7,-,0.14,Rain,Light Rain,290,2006-01-14 04:37:00
11:53 PM,48.0,45.0,89,29.42,4.0,Variable,5.8,-,0.18,Rain,Rain,0,2006-01-14 04:53:00